Regional Weather Roundup
Issued by NWS

Home | Current Version | Previous Version | Text Only | Print | Product List | Glossary Off
Versions: 1 2 3 4 5 6 7 8 9 10 11 12 13 14 15 16 17 18 19 20 21 22 23 24 25 26 27 28 29 30 31 32 33 34 35 36 37 38 39 40 41 42 43 44 45 46 47 48 49 50

000
ASUS45 KBOU 291207
RWRCO

WEATHER ROUNDUP FOR COLORADO
NATIONAL WEATHER SERVICE DENVER/BOULDER CO
500 AM MST THU JAN 29 2015

NOTE: "FAIR" INDICATES FEW OR NO CLOUDS BELOW 12000 FEET WITH NO
SIGNIFICANT WEATHER AND/OR OBSTRUCTIONS TO VISIBILITY.

COZ001>005-013-030-031-291300-
...NORTHWEST COLORADO...

CITY           SKY/WX    TMP DP  RH WIND       PRES   REMARKS
CRAIG          CLOUDY    32  30  92 CALM      30.40R
HAYDEN         CLOUDY    32  27  80 CALM      30.39S
MEEKER         MOCLDY    18  15  88 CALM      30.39S
MOUNT WERNER   NOT AVBL
STEAMBOAT SPGS CLOUDY    31  28  88 CALM      30.40R
WALDEN         MOCLDY    28  25  86 CALM      30.38S
$$

COZ006>008-011-291300-
...WEST CENTRAL VALLEYS...

CITY           SKY/WX    TMP DP  RH WIND       PRES   REMARKS
GRAND JUNCTION CLOUDY    33  27  78 CALM      30.33F
MONTROSE       CLOUDY    29  24  82 S6        30.37S WCI  23
EAGLE          CLOUDY    32  28  86 CALM      30.42R
RIFLE          MOCLDY    30  25  81 CALM      30.38R
DELTA          CLOUDY    32  26  78 CALM      30.36S
NUCLA          CLOUDY    32  27  80 E3        30.37S
$$

COZ017>023-064>068-291300-
...SOUTHWEST COLORADO...

CITY           SKY/WX    TMP DP  RH WIND       PRES   REMARKS
DURANGO        PTCLDY    29  26  89 CALM      30.31F
CORTEZ         CLEAR     26  25  96 CALM      30.31S
PAGOSA SPRINGS PTCLDY    29  28  95 CALM      30.33F
TELLURIDE      CLOUDY    28  20  70 SE6       30.36F WCI  22
WOLF CREEK PAS NOT AVBL
$$

COZ009-010-012-014-032>034-037-058>063-291300-
...CENTRAL COLORADO...

CITY           SKY/WX    TMP DP  RH WIND       PRES   REMARKS
ASPEN          MOCLDY    25  17  72 SW8       30.38R WCI  16
BUENA VISTA    CLOUDY    25  19  75 CALM      30.40S
COPPER MTN     FLURRIES  23  18  80 W3        30.41R
BERTHOUD PASS  CLOUDY    14  10  85 NW13      30.41R WCI   0
COTTONWOOD PAS CLOUDY    28  18  64 CALM      30.40R
GUNNISON       CLOUDY     9   0  66 CALM      30.42S
KREMMLING      CLOUDY    28  23  80 CALM      30.41R
LEADVILLE      MOCLDY    18  12  77 CALM      30.39R
MONARCH PASS   MOCLDY    19  14  79 MISG      30.50F
SALIDA         CLOUDY    29  20  69 CALM      30.48R
SUNLIGHT       MOCLDY    27  23  86 CALM        N/A
WILKERSON PASS CLOUDY    21  16  79 CALM      30.43S
$$

COZ069>075-291300-
...SAN LUIS VALLEY/SANGRE DE CRISTO MOUNTAINS...

CITY           SKY/WX    TMP DP  RH WIND       PRES   REMARKS
ALAMOSA        CLOUDY    25  19  78 NW5       30.35R WCI  19
LA VETA PASS   NOT AVBL
SAGUACHE       CLOUDY    28  23  80 CALM      30.37R
$$

COZ035-036-038>040-291300-
...NORTHERN COLORADO FRONT RANGE...

CITY           SKY/WX    TMP DP  RH WIND       PRES   REMARKS
DENVER INTL AP CLOUDY    37  29  72 NW7       30.43R
DMNS CITY PARK   N/A     39  25  56 N8        30.44R
AURORA         CLOUDY    35  29  78 NW6       30.44R WCI  30
FRONT RANGE AP NOT AVBL
ERIE MUNI ARPT CLOUDY    37  31  76 CALM      30.44R
BOULDER MUN AP CLOUDY    37  28  70 NE5       30.44R
CENTENNIAL     CLOUDY    36  28  73 N6        30.43R
BROOMFIELD     CLOUDY    37  28  70 N8        30.44R
FORT COLLINS   CLOUDY    37  27  65 CALM      30.45R
LONGMONT       CLOUDY    40  29  65 CALM      30.46R
$$

COZ041-046-047-076>085-087-088-291300-
...PIKES PEAK/PALMER DIVIDE AND SOUTHERN FOOTHILLS...

CITY           SKY/WX    TMP DP  RH WIND       PRES   REMARKS
COLO. SPRINGS  CLOUDY    37  26  64 NW6       30.42R
A. F. ACADEMY  CLOUDY    35  26  70 N8        30.41R WCI  28
ELLICOTT       CLOUDY   N/A N/A N/A N6        30.40R
FALCON         CLOUDY    33  26  75 N12       30.41S WCI  24
FORT CARSON    CLOUDY    37  25  60 N5        30.42R
LIMON          CLOUDY    34  26  72 NW12      30.41R WCI  25
MONUMENT HILL  CLOUDY    30  28  93 CALM      30.42R
TRINIDAD       CLOUDY    37  29  72 NE6       30.43R
$$

COZ042>045-048>051-090-091-291300-
...NORTHEAST COLORADO...

CITY           SKY/WX    TMP DP  RH WIND       PRES   REMARKS
GREELEY ARPT   CLOUDY    39  25  56 N6        30.43R
AKRON          CLOUDY    36  24  62 NW13      30.41R
BURLINGTON     CLOUDY    34  28  79 N12       30.38R WCI  25
WRAY           CLOUDY    33  29  85 NW9       30.41R WCI  25
STERLING       CLOUDY    39  27  60 NW10      30.42R
HOLYOKE        CLEAR     32  28  86 W9        30.41R WCI  24
FORT MORGAN    CLOUDY    38  26  62 N13       30.43R
$$

COZ086-089-092>099-291300-
...SOUTHEAST COLORADO...

CITY           SKY/WX    TMP DP  RH WIND       PRES   REMARKS
PUEBLO         CLOUDY    39  28  64 CALM      30.44R
LA JUNTA       CLOUDY    36  29  75 MISG      30.43R
LAMAR          CLOUDY    38  29  70 NW8       30.40R
SPRINGFIELD      N/A     38  28  67 N13       30.40R
$$



USA.gov is the U.S. government's official web portal to all federal, state and local government web resources and services.